Location: Weingarten
(37.8876°N, 90.2146°W)
Time: 19:42:22
(UTC+00:00)

BlueWalker 3 - Visible Passes

Search period start: 06 October 2024 00:00
Search period end: 16 October 2024 00:00
Orbit: 473 x 485 km, 53.2° (Epoch: 05 October)

Date Brightness Start Highest point End Pass type
(mag) Time Alt. Az. Time Alt. Az. Time Alt. Az.
06 Oct 5.0 09:16:40 14° ENE 09:16:40 14° ENE 09:17:19 10° ENE visible
06 Oct 2.8 10:50:54 25° WNW 10:52:01 31° NW 10:55:20 10° NNE visible
07 Oct 2.8 10:24:09 33° NNW 10:24:09 33° NNW 10:27:11 10° NNE visible
08 Oct 3.8 09:57:16 23° NNE 09:57:16 23° NNE 09:59:00 10° NE visible
08 Oct 4.2 11:33:30 10° NNW 11:34:21 11° NNW 11:35:12 10° N visible
09 Oct 4.8 09:30:18 13° NNE 09:30:18 13° NNE 09:30:45 10° NE visible
09 Oct 4.2 11:04:46 10° NW 11:05:59 11° NNW 11:07:11 10° N visible
10 Oct 4.2 10:37:25 12° NNW 10:37:34 12° NNW 10:39:02 10° N visible
11 Oct 4.5 10:10:16 11° N 10:10:16 11° N 10:10:51 10° N visible
15 Oct 4.6 11:32:57 10° N 11:33:46 11° NNE 11:34:35 10° NNE visible
